,,Stat6,,Stat2,,Stat8,,Stat9,,Stat10,,Wind1,,Wind1,
time,status,PA1M_AVG,status,PR1M_SUM,status,RH1M_AVG,status,SR1M_AVG,status,TA1M_AVG,status,W1dAve1m,status,W1sAve1m,
2007-11-11, 00:00:00,VALID,917.071,VALID,0,VALID,98.234,VALID,0,VALID,18.8435,VALID,84,VALID,0,
2007-11-11, 00:01:00,VALID,917.069,VALID,0,VALID,98.3077,VALID,0,VALID,18.847,VALID,84,VALID,0,
2007-11-11, 00:02:00,VALID,917.068,VALID,0,VALID,98.3586,VALID,0.0169808,VALID,18.8537,VALID,84,VALID,0,
2007-11-11, 00:03:00,VALID,917.066,VALID,0,VALID,98.4209,VALID,0.0169808,VALID,18.847,VALID,84,VALID,0,
2007-11-11, 00:04:00,VALID,917.069,VALID,0,VALID,98.6625,VALID,0,VALID,18.8634,VALID,84,VALID,0,
2007-11-11, 00:05:00,VALID,917.048,VALID,0,VALID,98.5862,VALID,0.0169808,VALID,18.847,VALID,84,VALID,0,
2007-11-11, 00:06:00,VALID,917.052,VALID,0,VALID,98.6574,VALID,0,VALID,18.8053,VALID,84,VALID,0,
2007-11-11, 00:07:00,VALID,917.046,VALID,0,VALID,98.838,VALID,0.0339617,VALID,18.7626,VALID,84,VALID,0,
2007-11-11, 00:08:00,VALID,917.021,VALID,0,VALID,98.9512,VALID,0,VALID,18.7307,VALID,84,VALID,0,
2007-11-11, 00:09:00,VALID,917.017,VALID,0,VALID,99.1661,VALID,0,VALID,18.6982,VALID,86,VALID,0,
2007-11-11, 00:10:00,VALID,917.006,VALID,0,VALID,99.3594,VALID,0,VALID,18.7042,VALID,86,VALID,0,
2007-11-11, 00:11:00,VALID,916.971,VALID,0,VALID,99.4967,VALID,-0.0339617,VALID,18.7212,VALID,86,VALID,0,
2007-11-11, 00:12:01,VALID,916.952,VALID,0,VALID,99.5552,VALID,-0.0339617,VALID,18.6917,VALID,86,VALID,0.243096,
2007-11-11, 00:13:01,VALID,916.925,VALID,0,VALID,99.5336,VALID,-0.0169808,VALID,18.666,VALID,86,VALID,0.331836,
2007-11-11, 00:14:00,VALID,916.922,VALID,0,VALID,99.4585,VALID,-0.0169808,VALID,18.6688,VALID,86,VALID,0,
2007-11-11, 00:15:00,VALID,916.907,VALID,0,VALID,99.311,VALID,0,VALID,18.669,VALID,86,VALID,0,
2007-11-11, 00:16:00,VALID,916.901,VALID,0,VALID,99.3021,VALID,0,VALID,18.6649,VALID,86,VALID,0,
2007-11-11, 00:17:00,VALID,916.878,VALID,0,VALID,99.2437,VALID,0,VALID,18.682,VALID,86,VALID,0,
2007-11-11, 00:18:01,VALID,916.871,VALID,0.2,VALID,99.203,VALID,0.0339617,VALID,18.6618,VALID,86,VALID,0,
2007-11-11, 00:19:00,VALID,916.86,VALID,0,VALID,99.161,VALID,0.0169808,VALID,18.6556,VALID,86,VALID,0,
2007-11-11, 00:20:00,VALID,916.849,VALID,0,VALID,99.2246,VALID,0.0169808,VALID,18.6811,VALID,86,VALID,0,
2007-11-11, 00:21:00,VALID,916.841,VALID,0,VALID,99.2398,VALID,0,VALID,18.701,VALID,86,VALID,0,
2007-11-11, 00:22:01,VALID,916.818,VALID,0,VALID,99.0097,VALID,0.0339617,VALID,18.6943,VALID,86,VALID,0,
2007-11-11, 00:23:00,VALID,916.819,VALID,0,VALID,98.9245,VALID,0,VALID,18.7137,VALID,86,VALID,0,
2007-11-11, 00:24:00,VALID,916.823,VALID,0,VALID,98.8787,VALID,0,VALID,18.7265,VALID,86,VALID,0,
2007-11-11, 00:25:00,VALID,916.808,VALID,0,VALID,98.8927,VALID,0,VALID,18.7112,VALID,86,VALID,0,
2007-11-11, 00:26:00,VALID,916.809,VALID,0,VALID,98.955,VALID,0.0339617,VALID,18.6683,VALID,86,VALID,0.553052,
2007-11-11, 00:27:00,VALID,916.799,VALID,0,VALID,99.0911,VALID,0,VALID,18.6596,VALID,86,VALID,0.779978,
2007-11-11, 00:28:00,VALID,916.783,VALID,0,VALID,99.0555,VALID,0.0169808,VALID,18.679,VALID,79,VALID,0.974559,
2007-11-11, 00:29:00,VALID,916.773,VALID,0,VALID,98.9346,VALID,0,VALID,18.7471,VALID,93,VALID,1.04427,
2007-11-11, 00:30:00,VALID,916.766,VALID,0,VALID,98.6256,VALID,-0.0169808,VALID,18.809,VALID,118,VALID,0.904726,
2007-11-11, 00:31:00,VALID,916.756,VALID,0,VALID,98.3586,VALID,-0.0169808,VALID,18.8312,VALID,67,VALID,0.207617,
2007-11-11, 00:32:01,VALID,916.739,VALID,0,VALID,98.1221,VALID,0,VALID,18.8636,VALID,90,VALID,0.266533,
2007-11-11, 00:33:01,VALID,916.747,VALID,0,VALID,97.9517,VALID,0,VALID,18.8901,VALID,48,VALID,0,
2007-11-11, 00:34:00,VALID,916.737,VALID,0,VALID,97.8309,VALID,0.0169808,VALID,18.8836,VALID,48,VALID,0,
2007-11-11, 00:35:00,VALID,916.707,VALID,0,VALID,97.6758,VALID,-0.0169808,VALID,18.8674,VALID,48,VALID,0,
2007-11-11, 00:36:01,VALID,916.709,VALID,0,VALID,97.6363,VALID,-0.0169808,VALID,18.8542,VALID,48,VALID,0,
2007-11-11, 00:37:01,VALID,916.689,VALID,0,VALID,97.6618,VALID,-0.0339617,VALID,18.8609,VALID,48,VALID,0,
2007-11-11, 00:38:00,VALID,916.678,VALID,0,VALID,97.7292,VALID,0.0169808,VALID,18.8671,VALID,48,VALID,0,
2007-11-11, 00:39:01,VALID,916.662,VALID,0,VALID,97.5804,VALID,-0.0169808,VALID,18.8641,VALID,70,VALID,0.251453,
2007-11-11, 00:40:00,VALID,916.651,VALID,0,VALID,97.5753,VALID,-0.0169808,VALID,18.8606,VALID,88,VALID,0.0509673,
2007-11-11, 00:41:01,VALID,916.621,VALID,0,VALID,97.3986,VALID,0,VALID,18.8544,VALID,99,VALID,0,
2007-11-11, 00:42:01,VALID,916.624,VALID,0,VALID,97.1201,VALID,-0.0169808,VALID,18.8866,VALID,108,VALID,0,
2007-11-11, 00:43:00,VALID,916.611,VALID,0,VALID,96.9573,VALID,0,VALID,18.942,VALID,108,VALID,0,
2007-11-11, 00:44:00,VALID,916.59,VALID,0,VALID,96.7284,VALID,-0.0169808,VALID,18.9647,VALID,108,VALID,0,
2007-11-11, 00:45:01,VALID,916.583,VALID,0,VALID,96.5631,VALID,0.0169808,VALID,18.9577,VALID,108,VALID,0,
2007-11-11, 00:46:01,VALID,916.585,VALID,0,VALID,96.6915,VALID,-0.0509425,VALID,18.9744,VALID,108,VALID,0,
2007-11-11, 00:47:00,VALID,916.576,VALID,0,VALID,96.8098,VALID,0,VALID,18.9614,VALID,108,VALID,0,
2007-11-11, 00:48:01,VALID,916.561,VALID,0,VALID,97.0565,VALID,-0.0169808,VALID,18.9485,VALID,108,VALID,0,
2007-11-11, 00:49:00,VALID,916.56,VALID,0,VALID,97.0133,VALID,0,VALID,18.916,VALID,108,VALID,0,
2007-11-11, 00:50:01,VALID,916.54,VALID,0,VALID,97.1239,VALID,-0.0339617,VALID,18.8836,VALID,108,VALID,0,
2007-11-11, 00:51:01,VALID,916.509,VALID,0,VALID,97.4621,VALID,-0.0509425,VALID,18.8769,VALID,108,VALID,0,
2007-11-11, 00:52:01,VALID,916.514,VALID,0,VALID,97.4113,VALID,0,VALID,18.8382,VALID,108,VALID,0,
2007-11-11, 00:53:00,VALID,916.5,VALID,0,VALID,97.4901,VALID,0,VALID,18.7925,VALID,108,VALID,0,
2007-11-11, 00:54:00,VALID,916.488,VALID,0,VALID,97.5015,VALID,0.0169808,VALID,18.7536,VALID,108,VALID,0,
2007-11-11, 00:55:01,VALID,916.465,VALID,0,VALID,97.6516,VALID,-0.0169808,VALID,18.7374,VALID,104,VALID,0,
2007-11-11, 00:56:01,VALID,916.456,VALID,0,VALID,98.0356,VALID,0,VALID,18.7629,VALID,91,VALID,0,
2007-11-11, 00:57:01,VALID,916.447,VALID,0,VALID,98.1844,VALID,0.0169808,VALID,18.7564,VALID,91,VALID,0,
2007-11-11, 00:58:01,VALID,916.443,VALID,0,VALID,98.1717,VALID,0.0169808,VALID,18.7506,VALID,91,VALID,0,
2007-11-11, 00:59:01,VALID,916.435,VALID,0,VALID,98.1132,VALID,-0.0169808,VALID,18.692,VALID,91,VALID,0,
2007-11-11, 01:00:01,VALID,916.427,VALID,0,VALID,98.1857,VALID,0,VALID,18.679,VALID,91,VALID,0,
2007-11-11, 01:01:01,VALID,916.424,VALID,0,VALID,98.131,VALID,0,VALID,18.6723,VALID,91,VALID,0,
2007-11-11, 01:02:01,VALID,916.41,VALID,0,VALID,98.3548,VALID,0.0169808,VALID,18.6985,VALID,91,VALID,0,
2007-11-11, 01:03:01,VALID,916.403,VALID,0,VALID,98.5163,VALID,0,VALID,18.7179,VALID,91,VALID,0,
2007-11-11, 01:04:01,VALID,916.389,VALID,0,VALID,98.4603,VALID,0,VALID,18.7112,VALID,91,VALID,0,
2007-11-11, 01:05:00,VALID,916.363,VALID,0,VALID,98.3116,VALID,0,VALID,18.6658,VALID,120,VALID,0.0948401,
2007-11-11, 01:06:00,VALID,916.353,VALID,0,VALID,98.351,VALID,0,VALID,18.6531,VALID,218,VALID,0.392624,
2007-11-11, 01:07:00,VALID,916.346,VALID,0,VALID,98.2086,VALID,0,VALID,18.6496,VALID,218,VALID,0,
2007-11-11, 01:08:00,VALID,916.355,VALID,0,VALID,98.3459,VALID,-0.0169808,VALID,18.6925,VALID,244,VALID,0,
2007-11-11, 01:09:00,VALID,916.345,VALID,0,VALID,98.1564,VALID,0,VALID,18.6855,VALID,335,VALID,0.248811,
2007-11-11, 01:10:00,VALID,916.328,VALID,0,VALID,97.9937,VALID,0,VALID,18.6693,VALID,340,VALID,0,
2007-11-11, 01:11:00,VALID,916.313,VALID,0,VALID,97.9186,VALID,0,VALID,18.685,VALID,75,VALID,0.673874,
2007-11-11, 01:12:00,VALID,916.3,VALID,0,VALID,97.9453,VALID,-0.0679233,VALID,18.7152,VALID,54,VALID,0.948765,
2007-11-11, 01:13:00,VALID,916.28,VALID,0,VALID,97.8932,VALID,-0.101885,VALID,18.7124,VALID,298,VALID,0.761719,
2007-11-11, 01:14:00,VALID,916.261,VALID,0,VALID,97.5041,VALID,-0.101885,VALID,18.6927,VALID,280,VALID,0.945494,
2007-11-11, 01:15:00,VALID,916.238,VALID,0,VALID,96.6407,VALID,-0.101885,VALID,18.7224,VALID,332,VALID,1.37056,
2007-11-11, 01:16:00,VALID,916.259,VALID,0,VALID,96.0023,VALID,-0.0679233,VALID,18.8127,VALID,315,VALID,1.09263,
2007-11-11, 01:17:00,VALID,916.251,VALID,0,VALID,95.8218,VALID,-0.0849042,VALID,18.8781,VALID,323,VALID,0.0423611,
2007-11-11, 01:18:00,VALID,916.239,VALID,0,VALID,95.8612,VALID,-0.0849042,VALID,18.8838,VALID,321,VALID,0,
2007-11-11, 01:19:00,VALID,916.235,VALID,0,VALID,95.9349,VALID,-0.0679233,VALID,18.8681,VALID,321,VALID,0,
2007-11-11, 01:20:00,VALID,916.215,VALID,0,VALID,96.1168,VALID,-0.101885,VALID,18.8489,VALID,66,VALID,0.326953,
2007-11-11, 01:21:00,VALID,916.197,VALID,0,VALID,96.221,VALID,-0.118866,VALID,18.8231,VALID,118,VALID,0.241642,
2007-11-11, 01:22:00,VALID,916.198,VALID,0,VALID,96.4156,VALID,-0.101885,VALID,18.8039,VALID,64,VALID,0.34304,
2007-11-11, 01:23:00,VALID,916.195,VALID,0,VALID,96.4843,VALID,-0.101885,VALID,18.7613,VALID,35,VALID,0.224964,
2007-11-11, 01:24:00,VALID,916.183,VALID,0,VALID,96.7627,VALID,-0.101885,VALID,18.7189,VALID,26,VALID,0,
2007-11-11, 01:25:00,VALID,916.174,VALID,0,VALID,96.9306,VALID,-0.101885,VALID,18.7194,VALID,18,VALID,0,
2007-11-11, 01:26:00,VALID,916.153,VALID,0,VALID,97.1302,VALID,-0.101885,VALID,18.7159,VALID,18,VALID,0,
2007-11-11, 01:27:00,VALID,916.151,VALID,0,VALID,97.3337,VALID,-0.0849042,VALID,18.7189,VALID,18,VALID,0,
2007-11-11, 01:28:00,VALID,916.144,VALID,0,VALID,97.466,VALID,-0.0339617,VALID,18.7124,VALID,18,VALID,0,
2007-11-11, 01:29:00,VALID,916.13,VALID,0,VALID,97.6033,VALID,-0.0679233,VALID,18.6834,VALID,18,VALID,0,
2007-11-11, 01:30:00,VALID,916.126,VALID,0,VALID,97.6338,VALID,-0.0169808,VALID,18.641,VALID,18,VALID,0,
2007-11-11, 01:31:00,VALID,916.101,VALID,0,VALID,97.6491,VALID,-0.0339617,VALID,18.6016,VALID,56,VALID,0.270712,
2007-11-11, 01:32:00,VALID,916.092,VALID,0,VALID,97.1404,VALID,-0.0339617,VALID,18.5917,VALID,320,VALID,1.14329,
2007-11-11, 01:33:00,VALID,916.085,VALID,0,VALID,96.2897,VALID,-0.0849042,VALID,18.657,VALID,285,VALID,0.361049,
2007-11-11, 01:34:00,VALID,916.09,VALID,0,VALID,95.5573,VALID,-0.0849042,VALID,18.7703,VALID,277,VALID,0.260417,
2007-11-11, 01:35:00,VALID,916.082,VALID,0,VALID,95.4479,VALID,-0.0679233,VALID,18.8871,VALID,283,VALID,0,
2007-11-11, 01:36:00,VALID,916.078,VALID,0,VALID,95.3131,VALID,-0.0849042,VALID,18.9494,VALID,64,VALID,0.462713,
2007-11-11, 01:37:00,VALID,916.044,VALID,0,VALID,95.1974,VALID,-0.101885,VALID,18.923,VALID,67,VALID,0.0456032,
2007-11-11, 01:38:00,VALID,916.031,VALID,0,VALID,95.3004,VALID,-0.0169808,VALID,18.8903,VALID,67,VALID,0,
2007-11-11, 01:39:00,VALID,916.025,VALID,0,VALID,95.2495,VALID,-0.0339617,VALID,18.8609,VALID,67,VALID,0,
2007-11-11, 01:40:00,VALID,916.02,VALID,0,VALID,95.1529,VALID,-0.0509425,VALID,18.8254,VALID,67,VALID,0,
2007-11-11, 01:41:00,VALID,916.027,VALID,0,VALID,95.3449,VALID,-0.0339617,VALID,18.8352,VALID,67,VALID,0,
2007-11-11, 01:42:00,VALID,916.034,VALID,0,VALID,95.6743,VALID,-0.0339617,VALID,18.8611,VALID,67,VALID,0.105469,
2007-11-11, 01:43:00,VALID,916.026,VALID,0,VALID,95.6501,VALID,-0.0849042,VALID,18.8289,VALID,70,VALID,0.971058,
2007-11-11, 01:44:00,VALID,916.021,VALID,0,VALID,95.6386,VALID,-0.0339617,VALID,18.8122,VALID,84,VALID,0.654652,
2007-11-11, 01:45:00,VALID,916.026,VALID,0,VALID,95.8624,VALID,-0.0509425,VALID,18.8449,VALID,144,VALID,0.122159,
2007-11-11, 01:46:00,VALID,916.019,VALID,0,VALID,96.0354,VALID,-0.0849042,VALID,18.8162,VALID,185,VALID,0.334302,
2007-11-11, 01:47:00,VALID,915.996,VALID,0,VALID,96.422,VALID,-0.0679233,VALID,18.764,VALID,189,VALID,0.548437,
2007-11-11, 01:48:00,VALID,915.98,VALID,0,VALID,96.8721,VALID,-0.0679233,VALID,18.7288,VALID,189,VALID,0.252668,
2007-11-11, 01:49:00,VALID,915.972,VALID,0,VALID,96.9624,VALID,-0.0679233,VALID,18.6739,VALID,189,VALID,0.318132,
2007-11-11, 01:50:00,VALID,915.962,VALID,0,VALID,97.0997,VALID,-0.0849042,VALID,18.6318,VALID,189,VALID,0,
2007-11-11, 01:51:00,VALID,915.969,VALID,0.2,VALID,97.2701,VALID,-0.101885,VALID,18.6447,VALID,189,VALID,0,
2007-11-11, 01:52:00,VALID,915.948,VALID,0,VALID,97.4494,VALID,-0.0849042,VALID,18.6181,VALID,189,VALID,0,
2007-11-11, 01:53:00,VALID,915.94,VALID,0,VALID,97.6109,VALID,-0.0339617,VALID,18.6051,VALID,189,VALID,0,
2007-11-11, 01:54:00,VALID,915.931,VALID,0,VALID,97.6618,VALID,-0.0849042,VALID,18.5662,VALID,189,VALID,0,
2007-11-11, 01:55:00,VALID,915.921,VALID,0,VALID,97.9072,VALID,-0.0679233,VALID,18.5565,VALID,191,VALID,0.0208939,
2007-11-11, 01:56:00,VALID,915.918,VALID,0,VALID,98.1666,VALID,-0.135847,VALID,18.544,VALID,208,VALID,0.525799,
2007-11-11, 01:57:00,VALID,915.908,VALID,0,VALID,98.4438,VALID,-0.0679233,VALID,18.5115,VALID,200,VALID,0.751453,
2007-11-11, 01:58:00,VALID,915.895,VALID,0,VALID,98.7744,VALID,-0.0679233,VALID,18.4759,VALID,185,VALID,0.517933,
2007-11-11, 01:59:00,VALID,915.893,VALID,0,VALID,99.1203,VALID,-0.0849042,VALID,18.4497,VALID,185,VALID,0,
2007-11-11, 02:00:00,VALID,915.888,VALID,0,VALID,99.3632,VALID,-0.0849042,VALID,18.4237,VALID,185,VALID,0.175977,
2007-11-11, 02:01:00,VALID,915.875,VALID,0,VALID,99.545,VALID,-0.0679233,VALID,18.3913,VALID,186,VALID,0.443859,
2007-11-11, 02:02:00,VALID,915.866,VALID,0,VALID,99.7726,VALID,-0.101885,VALID,18.3688,VALID,186,VALID,0.106399,
2007-11-11, 02:03:00,VALID,915.862,VALID,0,VALID,99.9756,VALID,-0.0849042,VALID,18.3693,VALID,186,VALID,0.00138889,
2007-11-11, 02:04:00,VALID,915.861,VALID,0,VALID,100,VALID,-0.0509425,VALID,18.3524,VALID,188,VALID,0.0828887,
2007-11-11, 02:05:00,VALID,915.835,VALID,0,VALID,100,VALID,-0.0509425,VALID,18.3329,VALID,196,VALID,0.662919,
2007-11-11, 02:06:00,VALID,915.835,VALID,0,VALID,100,VALID,-0.0679233,VALID,18.3165,VALID,187,VALID,0.155078,
2007-11-11, 02:07:00,VALID,915.823,VALID,0,VALID,100,VALID,-0.0509425,VALID,18.3072,VALID,187,VALID,0,
2007-11-11, 02:08:00,VALID,915.812,VALID,0,VALID,100,VALID,-0.0509425,VALID,18.291,VALID,187,VALID,0.000744048,
2007-11-11, 02:09:00,VALID,915.799,VALID,0,VALID,100,VALID,-0.0849042,VALID,18.3005,VALID,186,VALID,0.0383523,
2007-11-11, 02:10:00,VALID,915.794,VALID,0,VALID,100,VALID,-0.0679233,VALID,18.2836,VALID,186,VALID,0,
2007-11-11, 02:11:00,VALID,915.783,VALID,0,VALID,100,VALID,-0.0679233,VALID,18.2808,VALID,186,VALID,0,
2007-11-11, 02:12:00,VALID,915.782,VALID,0,VALID,100,VALID,-0.0509425,VALID,18.2644,VALID,186,VALID,0,
2007-11-11, 02:13:00,VALID,915.762,VALID,0,VALID,100,VALID,-0.0169808,VALID,18.2579,VALID,186,VALID,0,
2007-11-11, 02:14:00,VALID,915.75,VALID,0,VALID,100,VALID,-0.0679233,VALID,18.2322,VALID,186,VALID,0,
2007-11-11, 02:15:00,VALID,915.747,VALID,0,VALID,100,VALID,-0.0849042,VALID,18.2291,VALID,186,VALID,0,
2007-11-11, 02:16:00,VALID,915.729,VALID,0,VALID,100,VALID,-0.0849042,VALID,18.2322,VALID,185,VALID,0,
2007-11-11, 02:17:00,VALID,915.725,VALID,0,VALID,100,VALID,-0.0509425,VALID,18.2486,VALID,183,VALID,0,
2007-11-11, 02:18:00,VALID,915.706,VALID,0,VALID,100,VALID,-0.0849042,VALID,18.2484,VALID,183,VALID,0,
2007-11-11, 02:19:00,VALID,915.688,VALID,0,VALID,100,VALID,-0.0509425,VALID,18.2062,VALID,121,VALID,0,
2007-11-11, 02:20:00,VALID,915.651,VALID,0,VALID,100,VALID,-0.101885,VALID,18.1872,VALID,69,VALID,0,
2007-11-11, 02:21:00,VALID,915.59,VALID,0,VALID,100,VALID,-0.0849042,VALID,18.1898,VALID,96,VALID,1.38517,
2007-11-11, 02:22:00,VALID,915.61,VALID,0,VALID,100,VALID,-0.0509425,VALID,18.2058,VALID,101,VALID,1.42791,
2007-11-11, 02:23:00,VALID,915.614,VALID,0,VALID,99.9143,VALID,-0.0679233,VALID,18.2514,VALID,175,VALID,0.0658482,
2007-11-11, 02:24:00,VALID,915.615,VALID,0,VALID,99.7358,VALID,-0.0679233,VALID,18.2576,VALID,102,VALID,0.18641,
2007-11-11, 02:25:00,VALID,915.625,VALID,0,VALID,99.3734,VALID,-0.0679233,VALID,18.2676,VALID,38,VALID,0,
2007-11-11, 02:26:00,VALID,915.614,VALID,0,VALID,99.3174,VALID,-0.0169808,VALID,18.3,VALID,256,VALID,0,
2007-11-11, 02:27:00,VALID,915.609,VALID,0,VALID,99.1788,VALID,0,VALID,18.3121,VALID,218,VALID,0.485305,
2007-11-11, 02:28:00,VALID,915.606,VALID,0,VALID,99.3098,VALID,-0.0169808,VALID,18.3255,VALID,196,VALID,0.699314,
2007-11-11, 02:29:00,VALID,915.601,VALID,0,VALID,99.5259,VALID,-0.0169808,VALID,18.3322,VALID,186,VALID,0.83194,
2007-11-11, 02:30:00,VALID,915.58,VALID,0,VALID,99.7739,VALID,0,VALID,18.3322,VALID,181,VALID,0.949673,
2007-11-11, 02:31:00,VALID,915.594,VALID,0,VALID,99.9652,VALID,-0.0169808,VALID,18.3158,VALID,178,VALID,0.926235,
2007-11-11, 02:32:00,VALID,915.579,VALID,0,VALID,100,VALID,0.0169808,VALID,18.2861,VALID,172,VALID,0.976563,
2007-11-11, 02:33:00,VALID,915.578,VALID,0,VALID,100,VALID,0.0509425,VALID,18.2565,VALID,162,VALID,1.15091,
2007-11-11, 02:34:00,VALID,915.581,VALID,0,VALID,100,VALID,0,VALID,18.2472,VALID,151,VALID,1.03434,
2007-11-11, 02:35:00,VALID,915.601,VALID,0,VALID,100,VALID,0,VALID,18.2535,VALID,160,VALID,1.2449,
2007-11-11, 02:36:00,VALID,915.593,VALID,0,VALID,100,VALID,0,VALID,18.2634,VALID,155,VALID,1.0069,
2007-11-11, 02:37:00,VALID,915.588,VALID,0,VALID,100,VALID,0,VALID,18.2607,VALID,144,VALID,0.93641,
2007-11-11, 02:38:00,VALID,915.576,VALID,0,VALID,100,VALID,0,VALID,18.218,VALID,137,VALID,1.17243,
2007-11-11, 02:39:00,VALID,915.575,VALID,0,VALID,100,VALID,0,VALID,18.1956,VALID,138,VALID,1.42969,
2007-11-11, 02:40:00,VALID,915.582,VALID,0,VALID,100,VALID,0,VALID,18.1696,VALID,156,VALID,1.27293,
2007-11-11, 02:41:00,VALID,915.576,VALID,0,VALID,100,VALID,0.0169808,VALID,18.1662,VALID,174,VALID,0.909784,
2007-11-11, 02:42:00,VALID,915.59,VALID,0,VALID,100,VALID,-0.0679233,VALID,18.1701,VALID,182,VALID,0.269903,
2007-11-11, 02:43:00,VALID,915.594,VALID,0,VALID,100,VALID,-0.0849042,VALID,18.1768,VALID,263,VALID,0.443309,
2007-11-11, 02:44:00,VALID,915.613,VALID,0,VALID,100,VALID,-0.101885,VALID,18.1775,VALID,320,VALID,0.13899,
2007-11-11, 02:45:00,VALID,915.608,VALID,0,VALID,100,VALID,-0.101885,VALID,18.1673,VALID,320,VALID,0,
2007-11-11, 02:46:00,VALID,915.616,VALID,0,VALID,100,VALID,-0.101885,VALID,18.1742,VALID,320,VALID,0,
2007-11-11, 02:47:00,VALID,915.607,VALID,0,VALID,100,VALID,-0.101885,VALID,18.1675,VALID,320,VALID,0,
2007-11-11, 02:48:00,VALID,915.62,VALID,0,VALID,100,VALID,-0.101885,VALID,18.1578,VALID,320,VALID,0,
2007-11-11, 02:49:00,VALID,915.628,VALID,0,VALID,100,VALID,-0.0849042,VALID,18.1548,VALID,320,VALID,0,
2007-11-11, 02:50:00,VALID,915.638,VALID,0,VALID,100,VALID,-0.101885,VALID,18.1548,VALID,320,VALID,0,
2007-11-11, 02:51:00,VALID,915.622,VALID,0,VALID,100,VALID,-0.118866,VALID,18.1446,VALID,273,VALID,0.185454,
2007-11-11, 02:52:00,VALID,915.618,VALID,0,VALID,100,VALID,-0.0849042,VALID,18.1316,VALID,187,VALID,0.727431,
2007-11-11, 02:53:00,VALID,915.607,VALID,0,VALID,100,VALID,-0.135847,VALID,18.1678,VALID,187,VALID,0.59484,
2007-11-11, 02:54:00,VALID,915.606,VALID,0,VALID,100,VALID,-0.118866,VALID,18.1909,VALID,122,VALID,0.452567,
2007-11-11, 02:55:00,VALID,915.586,VALID,0,VALID,100,VALID,-0.101885,VALID,18.1481,VALID,125,VALID,0.751758,
2007-11-11, 02:56:00,VALID,915.592,VALID,0,VALID,100,VALID,-0.118866,VALID,18.1254,VALID,133,VALID,0.704078,
2007-11-11, 02:57:00,VALID,915.582,VALID,0,VALID,100,VALID,-0.0339617,VALID,18.1309,VALID,133,VALID,0.1,
2007-11-11, 02:58:00,VALID,915.572,VALID,0,VALID,100,VALID,0,VALID,18.1275,VALID,134,VALID,0.000195313,
2007-11-11, 02:59:00,VALID,915.566,VALID,0,VALID,100,VALID,0.0169808,VALID,18.105,VALID,152,VALID,0.827172,
2007-11-11, 03:00:00,VALID,915.564,VALID,0,VALID,100,VALID,-0.0169808,VALID,18.0983,VALID,174,VALID,0.188715,
2007-11-11, 03:01:00,VALID,915.575,VALID,0,VALID,100,VALID,-0.0169808,VALID,18.1076,VALID,174,VALID,0.164063,
2007-11-11, 03:02:00,VALID,915.564,VALID,0,VALID,100,VALID,-0.0339617,VALID,18.1018,VALID,174,VALID,0,
2007-11-11, 03:03:00,VALID,915.575,VALID,0,VALID,100,VALID,0.0169808,VALID,18.1145,VALID,174,VALID,0,
2007-11-11, 03:04:00,VALID,915.582,VALID,0,VALID,100,VALID,0,VALID,18.1073,VALID,174,VALID,0.0470567,
2007-11-11, 03:05:00,VALID,915.59,VALID,0,VALID,100,VALID,0,VALID,18.1342,VALID,180,VALID,0.405469,
2007-11-11, 03:06:00,VALID,915.606,VALID,0,VALID,100,VALID,0.0169808,VALID,18.133,VALID,188,VALID,0.036044,
2007-11-11, 03:07:00,VALID,915.616,VALID,0,VALID,100,VALID,-0.0169808,VALID,18.1666,VALID,188,VALID,0.245139,
2007-11-11, 03:08:00,VALID,915.619,VALID,0,VALID,100,VALID,0,VALID,18.1729,VALID,188,VALID,0.487282,
2007-11-11, 03:09:00,VALID,915.612,VALID,0,VALID,100,VALID,-0.0169808,VALID,18.1726,VALID,188,VALID,0.607515,
2007-11-11, 03:10:00,VALID,915.616,VALID,0,VALID,100,VALID,0.0169808,VALID,18.1726,VALID,177,VALID,0.596701,
2007-11-11, 03:11:00,VALID,915.608,VALID,0,VALID,100,VALID,0,VALID,18.1789,VALID,148,VALID,0.719105,
2007-11-11, 03:12:00,VALID,915.616,VALID,0,VALID,99.9977,VALID,-0.0169808,VALID,18.2248,VALID,144,VALID,0.822856,
2007-11-11, 03:13:00,VALID,915.608,VALID,0,VALID,99.5399,VALID,0,VALID,18.2345,VALID,144,VALID,0.788132,
2007-11-11, 03:14:00,VALID,915.603,VALID,0,VALID,98.6435,VALID,0,VALID,18.2956,VALID,144,VALID,0.777616,
2007-11-11, 03:15:00,VALID,915.603,VALID,0,VALID,97.4939,VALID,-0.0169808,VALID,18.4392,VALID,144,VALID,0.715199,
2007-11-11, 03:16:00,VALID,915.603,VALID,0,VALID,96.3088,VALID,0,VALID,18.5947,VALID,144,VALID,0.729226,
2007-11-11, 03:17:00,VALID,915.6,VALID,0,VALID,95.4861,VALID,0.0169808,VALID,18.7207,VALID,144,VALID,0.577237,
2007-11-11, 03:18:00,VALID,915.617,VALID,0,VALID,95.3373,VALID,0,VALID,18.8018,VALID,144,VALID,0.38157,
2007-11-11, 03:19:00,VALID,915.628,VALID,0,VALID,95.6336,VALID,0,VALID,18.825,VALID,144,VALID,0.0161577,
2007-11-11, 03:20:00,VALID,915.63,VALID,0,VALID,95.9082,VALID,-0.0169808,VALID,18.7372,VALID,144,VALID,0.146532,
2007-11-11, 03:21:00,VALID,915.624,VALID,0,VALID,96.4016,VALID,-0.0169808,VALID,18.6304,VALID,144,VALID,0.0636433,
2007-11-11, 03:22:00,VALID,915.638,VALID,0,VALID,96.895,VALID,-0.0169808,VALID,18.5298,VALID,144,VALID,0.118459,
2007-11-11, 03:23:00,VALID,915.629,VALID,0,VALID,97.3579,VALID,0.0169808,VALID,18.4518,VALID,144,VALID,0.379616,
2007-11-11, 03:24:00,VALID,915.62,VALID,0,VALID,97.8945,VALID,0,VALID,18.3899,VALID,146,VALID,0.853379,
2007-11-11, 03:25:00,VALID,915.604,VALID,0,VALID,98.3472,VALID,0,VALID,18.4033,VALID,149,VALID,1.02012,
2007-11-11, 03:26:00,VALID,915.591,VALID,0,VALID,98.412,VALID,0,VALID,18.3969,VALID,149,VALID,0.879542,
2007-11-11, 03:27:00,VALID,915.57,VALID,0,VALID,98.3116,VALID,0.0169808,VALID,18.3667,VALID,145,VALID,0.772892,
2007-11-11, 03:28:00,VALID,915.556,VALID,0,VALID,98.3739,VALID,0,VALID,18.3352,VALID,148,VALID,0.923399,
2007-11-11, 03:29:00,VALID,915.546,VALID,0,VALID,98.501,VALID,0,VALID,18.3058,VALID,152,VALID,0.881324,
2007-11-11, 03:30:00,VALID,915.553,VALID,0,VALID,98.4959,VALID,0,VALID,18.2607,VALID,166,VALID,0.954901,
2007-11-11, 03:31:00,VALID,915.541,VALID,0,VALID,98.529,VALID,0,VALID,18.2345,VALID,163,VALID,0.718936,
2007-11-11, 03:32:00,VALID,915.541,VALID,0,VALID,98.5583,VALID,0.0169808,VALID,18.234,VALID,163,VALID,0.777734,
2007-11-11, 03:33:00,VALID,915.53,VALID,0,VALID,98.5824,VALID,0.0169808,VALID,18.2342,VALID,164,VALID,1.019,
2007-11-11, 03:34:00,VALID,915.52,VALID,0,VALID,98.5824,VALID,0.0169808,VALID,18.2574,VALID,171,VALID,0.72218,
2007-11-11, 03:35:00,VALID,915.522,VALID,0,VALID,98.5392,VALID,0.0169808,VALID,18.2507,VALID,171,VALID,0.507631,
2007-11-11, 03:36:00,VALID,915.511,VALID,0,VALID,98.6422,VALID,0,VALID,18.2377,VALID,179,VALID,0.225543,
2007-11-11, 03:37:00,VALID,915.501,VALID,0,VALID,98.7643,VALID,0.0169808,VALID,18.2442,VALID,192,VALID,0.608817,
2007-11-11, 03:38:00,VALID,915.516,VALID,0,VALID,98.9525,VALID,0,VALID,18.244,VALID,192,VALID,0,
2007-11-11, 03:39:00,VALID,915.521,VALID,0,VALID,99.1076,VALID,0,VALID,18.2507,VALID,192,VALID,0,
2007-11-11, 03:40:00,VALID,915.536,VALID,0,VALID,99.2462,VALID,0,VALID,18.2509,VALID,192,VALID,0,
2007-11-11, 03:41:00,VALID,915.512,VALID,0,VALID,99.3365,VALID,-0.0169808,VALID,18.2442,VALID,192,VALID,0,